Regional Weather Roundup
Issued by NWS

Home | Current Version | Previous Version | Text Only | Print | Product List | Glossary On
Versions: 1 2 3 4 5 6 7 8 9 10 11 12 13 14 15 16 17 18 19 20 21 22 23 24 25 26 27 28 29 30 31 32 33 34 35 36 37 38 39 40 41 42 43 44 45 46 47 48 49 50
000
ASUS42 KTBW 181310
RWRFL
FLORIDA REGIONAL WEATHER ROUNDUP
NATIONAL WEATHER SERVICE TAMPA BAY RUSKIN FL
800 AM EST THU DEC 18 2014

NOTE: "FAIR" INDICATES FEW OR NO CLOUDS BELOW 12,000 FEET WITH NO
SIGNIFICANT WEATHER AND/OR OBSTRUCTIONS TO VISIBILITY.


FLZ001>010-012>015-112-114-115-181400-
PANHANDLE FLORIDA

CITY           SKY/WX    TMP DP  RH WIND       PRES   REMARKS
PENSACOLA      PTCLDY    41  39  93 N3        30.19S
PENSACOLA NAS  MOCLDY    45  41  86 NE6       30.20R WCI  42
MILTON NAS     MOCLDY    36  35  96 NE3       30.20R
CRESTVIEW      CLEAR     35  33  92 CALM      30.21S FOG
DUKE FIELD     FAIR      36  35  96 NE2       30.19F
VALPARAISO     MOCLDY    42  39  90 NE5       30.20S WCI  39
MARY ESTHER    CLOUDY    42  37  84 NE5       30.19S WCI  39
TRI COUNTY     FAIR      39  38  96 CALM      30.22R FOG
PANAMA CITY    FAIR      43  40  89 CALM      30.20R
TYNDALL AFB    PTCLDY    46  41  83 N5        30.21R WCI  44
APALACHICOLA   PTCLDY    44  39  82 NE5       30.18R WCI  42

STATION/POSITION SKY/WX   TEMP    WIND        PRES    WAVE   SWELL
                          AIR SEA DIR/SP/G            HT/PER HT/PER
                          (F)     (DEG/KT/KT) (MB)    (FT/S) (FT/S)
30.1N   87.6W              54 65   40/ 12/ 14 1021.7R   1/ 3
29.2N   88.2W              64 74   70/  6/  8 1021.2R   1/ 6
28.7N   86.0W              65 76  320/  2/  4 1021.8R   1/ 6
PANAMA CITY BEAC           43 61   10/  7/  9 1022.7R
CAPE SAN BLAS    NOT AVBL
TOWER C                    56      30/  6/  7 1021.8R
28.5N   84.5W              63 71  350/  4/  8 1021.6R   1/ 6   2/ 6

$$
FLZ011-016>038-118-127-128-134-139-239-181400-
NORTH FLORIDA

CITY           SKY/WX    TMP DP  RH WIND       PRES   REMARKS
MARIANNA       CLOUDY    41  40  96 NW3       30.21R
TALLAHASSEE    CLOUDY    42  38  85 NW3       30.19R
PERRY          FOG       39  39 100 CALM      30.19R VSB 1
CROSS CITY       N/A     39  36  89 CALM      30.17S
LAKE CITY      FAIR      43  41  93 CALM      30.17S
GAINESVILLE    MOCLDY    43  41  93 CALM      30.18R
MAYPORT NAS    MOCLDY    47  43  86 W3        30.17R
JACKSONVILLE   MOCLDY    41  40  96 SW3       30.18R
JAX NAS        MOCLDY    51  42  71 NW8       30.18R
JAX CRAIG      MOCLDY    47  43  86 NW7       30.17R WCI  44
JAX CECIL      CLEAR     39  39 100 CALM      30.18R
FERNANDINA BEA FAIR      50  45  81 NW3       30.15R
ST AUGUSTINE   CLOUDY    47  44  90 NW5       30.17S WCI  45

STATION/POSITION SKY/WX   TEMP    WIND        PRES    WAVE   SWELL
                          AIR SEA DIR/SP/G            HT/PER HT/PER
                          (F)     (DEG/KT/KT) (MB)    (FT/S) (FT/S)
SHELL POINT                45     360/  5/  7   N/A
KEATON BEACH               44      40/  4/  5 1022.2R
CEDAR KEY                  51     350/  4/  5 1022.0R
FERNANDINA                 46 59  320/  4/  5 1020.8F
30.7N   81.3W                 61                N/A     1/11
MAYPORT                    47 62  320/  7/  8   N/A
31.4N   80.9W              53 57  310/  6/  8 1021.1R   1/11
ST AUGUSTINE               49     310/  6/  7 1021.8R

$$
FLZ040-043>046-052-053-057-058-063-144-181400-
INTERIOR CENTRAL FLORIDA

CITY           SKY/WX    TMP DP  RH WIND       PRES   REMARKS
OCALA          CLEAR     37  34  87 CALM      30.18R FOG
THE VILLAGES   FOG       41  41 100 CALM      30.07S VSB 1/4
LEESBURG       PTCLDY    48  46  93 NW3       30.18R
SANFORD        MOCLDY    45  43  93 NW6       30.17R WCI  42
ORLANDO EXEC   MOCLDY    50  46  86 NW6       30.16R
ORLANDO INTL   CLOUDY    50  48  93 CALM      30.17R
KISSIMMEE      PTCLDY    48  48 100 NW6       30.17R
WINTER HAVEN   PTCLDY    51  48  89 NW7       30.18R
LAKELAND       CLEAR     43  39  87 CALM      30.18R
BARTOW         MOCLDY    41  41 100 CALM      30.18R
OKEECHOBEE     CLEAR     46  46 100 NW3       30.17R

$$
FLZ041-047-054-059-064-141-147-181400-
EAST CENTRAL FLORIDA

CITY           SKY/WX    TMP DP  RH WIND       PRES   REMARKS
ORMOND BEACH   CLEAR     45  43  93 W5        30.17R WCI  42
DAYTONA BEACH  MOCLDY    48  44  86 NW6       30.17R
DELAND         MOSUNNY  N/A N/A N/A NW3       30.17R
NEW SMYRNA BEA PTCLDY   N/A N/A N/A NW6       30.16R
JFK SPACE CTR  PTCLDY    49  47  93 W2        30.14S
TITUSVILLE     PTCLDY    45  45 100 CALM      30.15R
CAPE CANAVERAL PTCLDY    52  49  91 W5        30.14R
PATRICK AFB    PTCLDY    52  49  87 W7        30.15R
MELBOURNE      PTCLDY    49  47  93 W6        30.15R
VERO BEACH     PTCLDY    51  48  89 W5        30.15R
FT PIERCE      CLEAR     51  49  92 W5        30.15R
STUART         PTCLDY    54  48  82 CALM      30.16R

STATION/POSITION SKY/WX   TEMP    WIND        PRES    WAVE   SWELL
                          AIR SEA DIR/SP/G            HT/PER HT/PER
                          (F)     (DEG/KT/KT) (MB)    (FT/S) (FT/S)
28.5N   80.2W              64 75  290/ 10/ 12 1020.3R
28.9N   78.5W              71 76  270/ 12/ 16 1020.0R   2/11   2/11
TRIDENT PIER               53 65  300/  5/  8 1020.4R
28.4N   80.5W                 66                N/A     1/11
27.6N   80.2W                 76                N/A     2/11

$$
FLZ050-056-061-142-242-148-248-149-249-151-251-155-255-
160-260-181400-
WEST CENTRAL FLORIDA

CITY           SKY/WX    TMP DP  RH WIND       PRES   REMARKS
CRYSTAL RIVER  FOG       37  37 100 CALM      30.19R VSB<1/4
INVERNESS      PTSUNNY   37  37 100 CALM      30.19R FOG
BROOKSVILLE    FOG       39  38  96 CALM      30.18S VSB 1/4
ZEPHYRHILLS    FAIR      37  37 100 CALM      30.19R FOG
CLEARWATER     CLEAR     49  48  97 N3        30.17R
TAMPA INTL     PTCLDY    53  48  83 N3        30.18R
TAMPA EXEC       N/A     46  45  93 CALM      30.18R FOG
PLANT CITY     PTCLDY    46 N/A N/A CALM      30.19R HAZE
MACDILL AFB    PTCLDY    47  47  99 CALM      30.18R FOG
PETER O KNIGHT PTCLDY    52  50  93 CALM      30.18R
ST PETERSBURG  PTCLDY    57  53  86 N5        30.16R
SARASOTA       PTCLDY    48  47  96 E3        30.16R FOG
VENICE         FAIR      50  50 100 E3        30.18R

STATION/POSITION SKY/WX   TEMP    WIND        PRES    WAVE   SWELL
                          AIR SEA DIR/SP/G            HT/PER HT/PER
                          (F)     (DEG/KT/KT) (MB)    (FT/S) (FT/S)
CEDAR KEY                  51     350/  4/  5 1022.0R
28.5N   84.5W              63 71  350/  4/  8 1021.6R   1/ 6   2/ 6
27.3N   84.3W                 76                N/A     1/ 5
CLEARWATER BEACH           55 63   90/  3/  4 1021.2S
MIDDLE TAMPA BAY           56      70/  5/  6 1021.8R
VENICE                     53 64   80/  7/  7 1021.5R

$$
FLZ066-069-070-075>078-162-262-165-265-181400-
SOUTHWEST FLORIDA AND KEYS

CITY           SKY/WX    TMP DP  RH WIND       PRES   REMARKS
PUNTA GORDA    PTCLDY    51  50  96 CALM      30.19R
FT MYERS       CLEAR     53  49  86 CALM      30.16R
SOUTHWEST INTL PTCLDY    54  49  83 CALM      30.17R
NAPLES         PTCLDY    58  55  90 N3        30.16R
MARCO ISLAND   CLOUDY    57  54  88 N3        30.15R VSB<1/4
MARATHON       SUNNY     66  63  90 NE5       30.15R
KEY WEST NAS   SUNNY     66  61  84 NE3       30.15R
KEY WEST INTL  SUNNY     67  60  78 NE5       30.15S

STATION/POSITION SKY/WX   TEMP    WIND        PRES    WAVE   SWELL
                          AIR SEA DIR/SP/G            HT/PER HT/PER
                          (F)     (DEG/KT/KT) (MB)    (FT/S) (FT/S)
VENICE                     53 64   80/  7/  7 1021.5R
NAPLES                     58 72   30/  3/  6 1021.7R
26.0N   85.6W              72 76  110/  6/  8 1020.6R   2/ 8   2/ 8
DRY TORTUGAS               71     100/ 10/ 11 1020.1F
NW FL BAY                  65      50/  6/  7 1020.6R
SAND KEY                   70      60/ 10/ 11 1020.7R
SOMBRERO KEY               70      30/  9/ 10 1021.5R
LONG KEY                   67 67   40/  6/  6 1021.4R
MOLASSES REEF              69 77  360/  7/  7 1020.8R

$$
FLZ067-068-071>074-168-172>174-181400-
SOUTHEAST FLORIDA

CITY           SKY/WX    TMP DP  RH WIND       PRES   REMARKS
W PALM BEACH   MOSUNNY   58  55  90 NW6       30.14R
FT LAUDER-EXEC MOSUNNY   61  58  90 CALM      30.14R
FT LAUDERDALE  MOSUNNY   63  59  87 NW6       30.14R
POMPANO BEACH  SUNNY     61  58  90 W3        30.14R
PEMBROKE PINES SUNNY     60  58  92 CALM      30.15R
OPA LOCKA      SUNNY     60  58  92 CALM      30.15R
MIAMI          MOSUNNY   63  58  83 CALM      30.15R
WEST KENDALL   SUNNY     59  56  89 CALM      30.15R
HOMESTEAD      SUNNY     58  55  90 NW2       30.15R

STATION/POSITION SKY/WX   TEMP    WIND        PRES    WAVE   SWELL
                          AIR SEA DIR/SP/G            HT/PER HT/PER
                          (F)     (DEG/KT/KT) (MB)    (FT/S) (FT/S)
PORT EVERGLADES            63     290/  7/  8 1020.2
VIRGINIA KEY               68 71   CALM  /  2 1021.0R



USA.gov is the U.S. government's official web portal to all federal, state and local government web resources and services.